SCP
0 0 0 -0 -0 -0 -0 -0 -0 -0 -0 -0 -0 0 -0 0 -0 0 -0 -0 -0 -0 -0 -0 -0 -0 -0 -0 -0 -0 -0 -0 -0
-0 -0 -0 -0 -0 -0 -0 -0 -0 -0 -0 -0 0 0 -0 0 -0 -0 0 -0 -0 -0 -0 -0 -0 -0 -0 -0 -0 -0 -0 -0 -0
0 0 0 0 0 0 0 -0 -0 -0 -0 0 0 0 -0 0 0 0 0 0 -0 -0 -0 -0 -0 -0 -0 -0 -0 -0 -0 -0 -0
0 0 0 0 0 0 0 0 0 0 0 0 0 0 0 0 0 0 0 0 0 0 -0 -0 -0 -0 -0 -0 -0 -0 -0 -0 -0
0 0 0 0 0 0 0 0 0 0 0 0 0 0 0 0 0 0 0 0 0 0 0 0 0 0 -0 0 0 0 0 0 -0
0 0 0 0 0 0 0 0 0 0 0 0 0 -0 0 0 0 0 0 0 0 0 0 0 0 0 0 0 0 0 0 0 0
0 0 0 0 0 0 0 0 0 0 0 0 0 0 0 0 0 0 0 0 0 0 0 0 0 0 0 0 0 0 0 0 0
0 0 0 0 0 0 0 0 0 0 0 0 0 0 0 0 0 0 0 0 0 0 0 0 0 0 0 0 0 0 0 0 0
0 0 0 0 0 0 0 0 0 0 0 0 0 0 0 0 0 0 0 0 0 0 0 0 0 0 0 0 0 0 0 0 0
0 0 0 0 0 0 0 0 0 0 0 0 0 0 0 0 -0 -0 0 0 0 0 0 0 0 0 0 0 0 0 0 0 0
0 0 0 0 0 0 0 0 0 0 0 0 0 0 0 0 0 -0 0 0 0 0 0 0 0 0 0 0 0 0 0 0 0
0 0 0 0 0 0 0 0 0 0 0 0 0 0 0 0 0 0 0 0 0 0 0 0 0 0 0 0 0 0 0 0 0
0 0 0 0 0 0 0 0 0 0 0 0 0 0 0 0 0 0 0 0 0 0 0 0 0 0 0 0 0 0 0 0 0
0 0 0 0 0 0 0 0 0 0 0 0 0 0 0 0 0 0 0 0 0 0 0 0 0 0 0 0 0 0 0 0 0
0 0 0 0 0 0 0 0 0 0 0 0 0 0 0 0 0 0 0 0 0 0 0 0 0 0 0 0 0 0 0 0 0
0 0 0 0 0 0 0 0 0 0 0 0 0 0 0 0 0 0 0 0 0 0 0 0 0 0 0 0 0 0 0 0 0
0 0 0 0 0 0 0 0 0 0 0 0 0 0 0 0 0 -0 -0 0 0 0 0 0 0 0 0 0 0 0 0 0 0
0 0 0 0 0 0 0 0 0 0 0 0 0 0 0 0 0 0 0 0 0 0 0 0 0 0 0 0 0 0 0 0 0
0 0 0 0 0 0 0 0 0 0 0 0 0 0 0 0 0 0 0 0 0 0 0 0 0 0 0 0 0 0 0 0 0
0 0 0 0 0 0 0 0 0 0 0 0 0 0 0 0 0 0 0 0 0 0 0 0 0 0 0 0 0 0 0 0 0
Wind_Speed_500mb
17 15 17 17 19 21 21 20 17 15 13 16 22 29 37 28 28 32 29 30 31 32 30 23 24 30 30 27 22 16 17 19 20
15 15 16 15 17 18 18 18 16 14 12 16 19 24 35 27 24 21 28 29 24 27 30 28 25 19 23 26 28 22 15 15 16
8 10 9 9 11 12 14 14 15 15 15 16 18 23 29 21 25 25 27 28 27 24 23 26 27 24 17 19 22 25 25 21 18
5 6 5 5 7 10 12 13 14 14 14 15 16 17 16 21 19 19 20 24 24 23 22 18 22 25 21 18 17 17 19 22 23
7 3 3 5 6 7 9 11 12 12 13 14 15 14 18 18 17 16 17 19 21 21 18 16 15 14 21 18 15 14 13 15 15
9 3 3 5 6 8 10 12 14 17 17 17 17 22 18 17 15 17 16 16 17 19 19 16 13 12 11 15 13 11 10 8 10
6 5 7 11 15 18 18 19 22 21 20 21 23 21 20 18 15 19 16 14 15 15 17 16 15 12 8 7 7 7 7 4 4
6 8 13 17 21 17 19 19 23 26 25 25 24 25 23 19 20 27 24 20 16 14 13 16 15 14 10 8 8 6 4 3 1
12 13 15 17 14 15 16 19 22 22 23 23 22 24 25 24 26 29 29 28 23 18 14 12 15 15 13 10 10 9 9 8 7
15 15 15 15 15 13 14 15 15 15 18 20 21 22 24 24 27 27 27 25 23 19 17 11 9 12 15 13 12 10 11 12 13
17 17 17 15 13 11 9 9 10 12 12 16 18 17 19 22 27 28 31 29 24 20 17 13 13 17 20 20 18 16 13 13 14
18 17 14 12 12 9 5 4 6 8 10 10 12 16 15 18 20 25 22 28 25 24 22 17 14 16 20 20 21 20 21 20 19
21 20 18 14 9 5 2 1 5 5 7 8 12 13 14 14 16 25 21 17 21 30 27 24 22 21 19 22 26 24 23 22 22
20 16 15 14 10 5 4 6 4 6 10 13 15 15 16 16 14 15 23 17 22 29 34 31 32 32 35 34 30 28 26 25 23
21 19 17 13 11 7 8 6 10 15 17 16 19 17 21 19 15 12 12 20 37 30 33 36 33 45 40 35 34 32 31 30 29
25 18 14 19 15 11 15 16 18 13 17 23 19 24 21 19 17 15 12 22 23 29 29 32 36 34 42 47 41 37 37 36 36
22 20 19 20 21 22 23 22 22 19 21 17 23 23 22 15 13 15 23 29 25 26 25 26 32 37 42 41 49 43 41 40 40
24 22 20 18 22 22 23 25 29 27 24 24 17 16 19 30 33 28 26 31 34 33 31 33 33 33 34 38 43 43 42 41 43
24 23 24 24 22 24 22 24 27 27 28 23 26 26 28 34 36 34 41 42 38 36 40 37 36 37 38 36 43 49 51 45 45
24 25 24 26 25 27 28 26 26 25 27 26 27 31 33 35 42 49 44 42 42 42 40 41 42 41 40 43 45 39 51 52 48
Wind_Direction_500mb
85 85 78 78 74 70 67 70 81 87 75 63 56 60 65 60 54 47 47 58 58 44 46 45 52 58 52 55 63 76 87 92 94
96 76 82 72 70 66 63 64 73 83 68 62 57 63 72 61 63 44 54 50 48 45 45 41 40 45 50 54 59 61 69 81 103
78 78 73 59 57 59 63 66 67 68 65 61 61 72 82 62 44 45 38 44 41 41 43 43 36 36 38 43 53 58 64 65 74
70 83 77 52 46 53 63 70 69 64 62 63 65 68 72 61 53 49 40 34 30 33 35 35 42 34 32 41 45 47 61 66 68
72 72 86 64 67 70 70 69 67 58 50 50 53 48 48 54 46 17 29 24 19 16 22 28 27 24 29 29 37 50 60 70 76
143 108 75 76 80 74 70 72 68 66 52 48 45 47 44 44 36 14 13 10 7 5 6 11 12 19 29 32 24 39 66 61 97
116 78 84 98 96 89 83 80 72 70 63 51 53 47 45 38 24 16 9 4 1 1 1 1 8 1 6 6 9 24 44 85 110
121 108 109 107 95 86 83 79 77 66 56 54 45 48 44 41 20 20 16 10 2 354 355 357 5 357 348 333 333 321 329 322 265
141 139 135 108 101 95 88 77 71 62 62 56 51 41 44 38 32 28 23 18 11 4 352 348 360 352 348 338 308 298 298 293 276
148 138 135 133 114 102 89 81 66 56 43 39 39 31 28 24 20 21 19 19 16 8 1 359 13 349 322 328 324 314 288 281 271
150 150 146 138 131 118 105 71 52 45 40 32 18 31 16 14 5 5 0 3 6 6 3 347 321 316 323 326 318 315 305 289 276
164 156 153 155 141 134 121 76 57 30 25 20 16 354 7 359 348 347 353 349 358 0 357 351 336 320 320 316 311 306 306 301 289
177 173 179 184 186 182 130 60 354 359 354 356 341 343 337 342 337 330 337 344 351 345 341 336 329 325 323 318 315 310 302 295 292
188 186 198 204 218 198 234 307 295 328 316 335 321 316 307 313 314 313 322 308 329 332 326 319 310 306 309 308 301 298 299 296 288
187 193 208 219 240 232 277 272 301 301 302 313 310 304 302 298 303 274 283 321 313 314 314 313 310 309 304 302 298 292 285 283 283
202 205 209 226 224 239 267 274 292 290 298 309 306 297 287 287 285 267 249 301 303 311 308 314 309 303 299 305 296 292 285 277 272
212 217 220 236 251 260 270 279 281 282 297 297 304 304 287 281 283 264 278 292 291 289 295 290 295 294 299 296 294 292 286 282 274
222 228 234 239 248 255 266 277 283 284 279 281 282 303 289 301 285 290 281 289 291 293 286 286 289 288 288 287 293 293 288 284 279
236 234 238 240 248 265 266 270 274 274 279 273 265 267 274 287 291 280 281 286 283 284 286 287 285 283 284 277 278 287 286 284 279
235 246 248 256 255 259 260 260 266 268 266 268 272 268 274 279 283 286 288 287 286 286 285 285 283 279 274 278 278 281 280 287 284
Wind_Speed_850mb
17 15 17 17 19 21 21 20 17 15 13 16 22 29 37 28 28 32 29 30 31 32 30 23 24 30 30 27 22 16 17 19 20
15 15 16 15 17 18 18 18 16 14 12 16 19 24 35 27 24 21 28 29 24 27 30 28 25 19 23 26 28 22 15 15 16
8 10 9 9 11 12 14 14 15 15 15 16 18 23 29 21 25 25 27 28 27 24 23 26 27 24 17 19 22 25 25 21 18
5 6 5 5 7 10 12 13 14 14 14 15 16 17 16 21 19 19 20 24 24 23 22 18 22 25 21 18 17 17 19 22 23
7 3 3 5 6 7 9 11 12 12 13 14 15 14 18 18 17 16 17 19 21 21 18 16 15 14 21 18 15 14 13 15 15
9 3 3 5 6 8 10 12 14 17 17 17 17 22 18 17 15 17 16 16 17 19 19 16 13 12 11 15 13 11 10 8 10
6 5 7 11 15 18 18 19 22 21 20 21 23 21 20 18 15 19 16 14 15 15 17 16 15 12 8 7 7 7 7 4 4
6 8 13 17 21 17 19 19 23 26 25 25 24 25 23 19 20 27 24 20 16 14 13 16 15 14 10 8 8 6 4 3 1
12 13 15 17 14 15 16 19 22 22 23 23 22 24 25 24 26 29 29 28 23 18 14 12 15 15 13 10 10 9 9 8 7
15 15 15 15 15 13 14 15 15 15 18 20 21 22 24 24 27 27 27 25 23 19 17 11 9 12 15 13 12 10 11 12 13
17 17 17 15 13 11 9 9 10 12 12 16 18 17 19 22 27 28 31 29 24 20 17 13 13 17 20 20 18 16 13 13 14
18 17 14 12 12 9 5 4 6 8 10 10 12 16 15 18 20 25 22 28 25 24 22 17 14 16 20 20 21 20 21 20 19
21 20 18 14 9 5 2 1 5 5 7 8 12 13 14 14 16 25 21 17 21 30 27 24 22 21 19 22 26 24 23 22 22
20 16 15 14 10 5 4 6 4 6 10 13 15 15 16 16 14 15 23 17 22 29 34 31 32 32 35 34 30 28 26 25 23
21 19 17 13 11 7 8 6 10 15 17 16 19 17 21 19 15 12 12 20 37 30 33 36 33 45 40 35 34 32 31 30 29
25 18 14 19 15 11 15 16 18 13 17 23 19 24 21 19 17 15 12 22 23 29 29 32 36 34 42 47 41 37 37 36 36
22 20 19 20 21 22 23 22 22 19 21 17 23 23 22 15 13 15 23 29 25 26 25 26 32 37 42 41 49 43 41 40 40
24 22 20 18 22 22 23 25 29 27 24 24 17 16 19 30 33 28 26 31 34 33 31 33 33 33 34 38 43 43 42 41 43
24 23 24 24 22 24 22 24 27 27 28 23 26 26 28 34 36 34 41 42 38 36 40 37 36 37 38 36 43 49 51 45 45
24 25 24 26 25 27 28 26 26 25 27 26 27 31 33 35 42 49 44 42 42 42 40 41 42 41 40 43 45 39 51 52 48
Wind_Direction_850mb
85 85 78 78 74 70 67 70 81 87 75 63 56 60 65 60 54 47 47 58 58 44 46 45 52 58 52 55 63 76 87 92 94
96 76 82 72 70 66 63 64 73 83 68 62 57 63 72 61 63 44 54 50 48 45 45 41 40 45 50 54 59 61 69 81 103
78 78 73 59 57 59 63 66 67 68 65 61 61 72 82 62 44 45 38 44 41 41 43 43 36 36 38 43 53 58 64 65 74
70 83 77 52 46 53 63 70 69 64 62 63 65 68 72 61 53 49 40 34 30 33 35 35 42 34 32 41 45 47 61 66 68
72 72 86 64 67 70 70 69 67 58 50 50 53 48 48 54 46 17 29 24 19 16 22 28 27 24 29 29 37 50 60 70 76
143 108 75 76 80 74 70 72 68 66 52 48 45 47 44 44 36 14 13 10 7 5 6 11 12 19 29 32 24 39 66 61 97
116 78 84 98 96 89 83 80 72 70 63 51 53 47 45 38 24 16 9 4 1 1 1 1 8 1 6 6 9 24 44 85 110
121 108 109 107 95 86 83 79 77 66 56 54 45 48 44 41 20 20 16 10 2 354 355 357 5 357 348 333 333 321 329 322 265
141 139 135 108 101 95 88 77 71 62 62 56 51 41 44 38 32 28 23 18 11 4 352 348 360 352 348 338 308 298 298 293 276
148 138 135 133 114 102 89 81 66 56 43 39 39 31 28 24 20 21 19 19 16 8 1 359 13 349 322 328 324 314 288 281 271
150 150 146 138 131 118 105 71 52 45 40 32 18 31 16 14 5 5 0 3 6 6 3 347 321 316 323 326 318 315 305 289 276
164 156 153 155 141 134 121 76 57 30 25 20 16 354 7 359 348 347 353 349 358 0 357 351 336 320 320 316 311 306 306 301 289
177 173 179 184 186 182 130 60 354 359 354 356 341 343 337 342 337 330 337 344 351 345 341 336 329 325 323 318 315 310 302 295 292
188 186 198 204 218 198 234 307 295 328 316 335 321 316 307 313 314 313 322 308 329 332 326 319 310 306 309 308 301 298 299 296 288
187 193 208 219 240 232 277 272 301 301 302 313 310 304 302 298 303 274 283 321 313 314 314 313 310 309 304 302 298 292 285 283 283
202 205 209 226 224 239 267 274 292 290 298 309 306 297 287 287 285 267 249 301 303 311 308 314 309 303 299 305 296 292 285 277 272
212 217 220 236 251 260 270 279 281 282 297 297 304 304 287 281 283 264 278 292 291 289 295 290 295 294 299 296 294 292 286 282 274
222 228 234 239 248 255 266 277 283 284 279 281 282 303 289 301 285 290 281 289 291 293 286 286 289 288 288 287 293 293 288 284 279
236 234 238 240 248 265 266 270 274 274 279 273 265 267 274 287 291 280 281 286 283 284 286 287 285 283 284 277 278 287 286 284 279
235 246 248 256 255 259 260 260 266 268 266 268 272 268 274 279 283 286 288 287 286 286 285 285 283 279 274 278 278 281 280 287 284